Weather History for K1M4 - February, 2013

Change the Weather History Date:

Thursday, February 28, 2013

  Actual Average (KJFX) Record (KJFX)
Temperature  
Mean Temperature 34 °F -  
Max Temperature 36 °F 58 °F 80 °F (1981)
Min Temperature 31 °F 32 °F 19 °F (1974)
Degree Days  
Heating Degree Days 32    
Moisture  
Dew Point 26 °F    
Average Humidity 72    
Maximum Humidity 89    
Minimum Humidity 60    
Precipitation  
Precipitation 0.00 in - - ()
Sea Level Pressure  
Sea Level Pressure 30.06 in    
Wind  
Wind Speed 7 mph (WNW)    
Max Wind Speed 14 mph    
Max Gust Speed 22 mph    
Visibility 10 miles    
Events      
Averages and records for this station are not official NWS values.
T = Trace of Precipitation, MM = Missing Value Source: NWS Daily Summary

Daily Weather History Graph

Daily Weather History Graph

Search for Another Location

Airport or City:

Trip Planner

Search our weather history database for the weather conditions in past years. The results will help you decide how hot, cold, wet, or windy it might be!

Date:

Astronomy

Feb. 28, 2013 Rise Set
Actual Time 6:20 AM CST 5:45 PM CST
Civil Twilight 5:55 AM CST 6:11 PM CST
Nautical Twilight 5:25 AM CST 6:40 PM CST
Astronomical Twilight 4:56 AM CST 7:09 PM CST
Moon 9:00 PM CST 7:39 AM CST
Length of Visible Light 12h 16m
Length of Day
11h 25m
Waning Gibbous, 90% of the Moon is Illuminated
Feb 28
Waning Gibbous
Mar 4
Last Quarter
Mar 11
New
Mar 19
First Quarter
Mar 27
Full

Hourly Weather History & Observations

Time (CST) Temp. Windchill Dew Point Humidity Pressure Visibility Wind Dir Wind Speed Gust Speed Precip Events Conditions
12:56 AM 34.9 °F 29.0 °F 30.0 °F 82% 29.99 in 10.0 mi WSW 6.9 mph - N/A   Clear
1:56 AM 34.9 °F 29.9 °F 30.0 °F 82% 29.98 in 10.0 mi West 5.8 mph - N/A   Clear
2:56 AM 32.9 °F 27.5 °F 30.0 °F 89% 29.98 in 10.0 mi WSW 5.8 mph - N/A   Partly Cloudy
3:56 AM 32.9 °F 27.5 °F 30.0 °F 89% 29.98 in 9.0 mi West 5.8 mph - N/A   Clear
4:56 AM 32.0 °F 24.8 °F 27.1 °F 82% 30.00 in 10.0 mi NW 8.1 mph - N/A   Clear
5:56 AM 31.1 °F 24.5 °F 25.2 °F 79% 30.02 in 10.0 mi Variable 6.9 mph - N/A   Clear
6:56 AM 31.1 °F 25.4 °F 25.2 °F 79% 30.04 in 10.0 mi WNW 5.8 mph - N/A   Clear
7:56 AM 32.9 °F 25.9 °F 26.1 °F 76% 30.06 in 10.0 mi NW 8.1 mph - N/A   Mostly Cloudy
8:56 AM 34.9 °F 25.7 °F 26.1 °F 70% 30.05 in 10.0 mi NNW 13.8 mph 21.9 mph N/A   Overcast
9:14 AM 35.6 °F 26.6 °F 24.8 °F 65% 30.02 in 10.0 mi NW 13.8 mph 18.4 mph N/A   Overcast
9:56 AM 34.9 °F 26.6 °F 25.2 °F 68% 30.07 in 10.0 mi NNW 11.5 mph - N/A   Overcast
10:56 AM 34.9 °F 29.0 °F 26.1 °F 70% 30.09 in 10.0 mi NNW 6.9 mph - N/A   Overcast
11:56 AM 34.9 °F 29.9 °F 26.1 °F 70% 30.09 in 10.0 mi Variable 5.8 mph - N/A   Overcast
12:56 PM 36.0 °F 29.6 °F 25.2 °F 65% 30.08 in 10.0 mi WNW 8.1 mph - N/A   Overcast
1:56 PM 36.9 °F 31.4 °F 25.2 °F 63% 30.09 in 10.0 mi Variable 6.9 mph - N/A   Overcast
2:56 PM 36.9 °F 30.1 °F 24.1 °F 60% 30.09 in 10.0 mi WNW 9.2 mph - N/A   Mostly Cloudy
3:56 PM 36.9 °F 30.7 °F 25.2 °F 63% 30.09 in 10.0 mi WNW 8.1 mph - N/A   Mostly Cloudy
5:56 PM 36.0 °F 30.3 °F 25.2 °F 65% 30.11 in 10.0 mi WNW 6.9 mph - N/A   Overcast
6:56 PM 36.0 °F 31.1 °F 25.2 °F 65% 30.12 in 10.0 mi NW 5.8 mph - N/A   Mostly Cloudy
7:56 PM 36.0 °F 31.1 °F 25.2 °F 65% 30.11 in 10.0 mi NNW 5.8 mph - N/A   Mostly Cloudy
8:56 PM 36.0 °F 32.1 °F 26.1 °F 67% 30.12 in 10.0 mi NW 4.6 mph - N/A   Mostly Cloudy
10:56 PM 34.9 °F 28.3 °F 27.1 °F 73% 30.11 in 10.0 mi NW 8.1 mph - N/A   Mostly Cloudy